Time,TemperatureF,DewpointF,PressureIn,WindDirection,WindDirectionDegrees,WindSpeedMPH,WindSpeedGustMPH,Humidity,HourlyPrecipIn,Conditions,Clouds,dailyrainin,SoftwareType,DateUTC
2013-09-02 00:00:00,63.5,53.5,29.79,ESE,108,1.0,4.0,70,0.00,RA,RA,0.00,WeatherDisplay:10.37,2013-09-02 06:00:00,
2013-09-02 00:05:00,63.5,53.1,29.80,ESE,120,0.0,5.0,69,0.00,RA,RA,0.00,WeatherDisplay:10.37,2013-09-02 06:05:00,
2013-09-02 00:10:00,63.7,53.3,29.80,SE,125,0.0,6.0,69,0.00,CLR,CLR,0.00,WeatherDisplay:10.37,2013-09-02 06:10:00,
2013-09-02 00:15:00,63.6,53.2,29.80,ESE,122,1.0,5.0,69,0.00,CLR,CLR,0.00,WeatherDisplay:10.37,2013-09-02 06:15:00,
2013-09-02 00:20:00,63.3,53.4,29.80,East,101,0.0,5.0,70,0.00,CLR,CLR,0.00,WeatherDisplay:10.37,2013-09-02 06:20:00,
2013-09-02 00:25:00,62.8,53.3,29.80,East,98,1.0,4.0,71,0.00,CLR,CLR,0.00,WeatherDisplay:10.37,2013-09-02 06:25:00,
2013-09-02 00:30:00,62.4,53.3,29.80,ESE,111,2.0,9.0,72,0.00,CLR,CLR,0.00,WeatherDisplay:10.37,2013-09-02 06:30:00,
2013-09-02 00:35:00,62.7,53.2,29.80,SE,125,0.0,5.0,71,0.00,CLR,CLR,0.00,WeatherDisplay:10.37,2013-09-02 06:35:00,
2013-09-02 00:40:00,62.1,53.4,29.80,SSE,153,0.0,6.0,73,0.00,CLR,CLR,0.00,WeatherDisplay:10.37,2013-09-02 06:40:00,
2013-09-02 00:45:00,62.4,53.2,29.80,SSE,153,0.0,0.0,72,0.00,CLR,CLR,0.00,WeatherDisplay:10.37,2013-09-02 06:45:00,
2013-09-02 00:50:00,62.6,53.8,29.80,SE,135,0.0,0.0,73,0.00,CLR,CLR,0.00,WeatherDisplay:10.37,2013-09-02 06:50:00,
2013-09-02 00:55:00,62.7,53.5,29.80,SE,135,1.0,3.0,72,0.00,CLR,CLR,0.00,WeatherDisplay:10.37,2013-09-02 06:55:00,
2013-09-02 01:00:00,62.0,53.3,29.80,SE,141,0.0,0.0,73,0.00,CLR,CLR,0.00,WeatherDisplay:10.37,2013-09-02 07:00:00,
2013-09-02 01:05:00,61.7,53.3,29.80,SE,145,0.0,0.0,74,0.00,CLR,CLR,0.00,WeatherDisplay:10.37,2013-09-02 07:05:00,
2013-09-02 01:10:00,61.9,53.1,29.81,SE,145,0.0,0.0,73,0.00,CLR,CLR,0.00,WeatherDisplay:10.37,2013-09-02 07:10:00,
2013-09-02 01:15:00,62.0,53.6,29.80,SE,145,0.0,0.0,74,0.00,CLR,CLR,0.00,WeatherDisplay:10.37,2013-09-02 07:15:00,
2013-09-02 01:20:00,61.7,53.3,29.80,SE,145,0.0,0.0,74,0.00,CLR,CLR,0.00,WeatherDisplay:10.37,2013-09-02 07:20:00,
2013-09-02 01:25:00,61.4,53.4,29.80,SE,145,0.0,0.0,75,0.00,CLR,CLR,0.00,WeatherDisplay:10.37,2013-09-02 07:25:00,
2013-09-02 01:30:00,61.3,53.7,29.81,SE,145,0.0,0.0,76,0.00,CLR,CLR,0.00,WeatherDisplay:10.37,2013-09-02 07:30:00,
2013-09-02 01:35:00,60.9,53.7,29.81,SE,145,0.0,0.0,77,0.00,CLR,CLR,0.00,WeatherDisplay:10.37,2013-09-02 07:35:00,
2013-09-02 01:40:00,60.6,53.3,29.80,SE,140,0.0,3.0,77,0.00,CLR,CLR,0.00,WeatherDisplay:10.37,2013-09-02 07:40:00,
2013-09-02 01:45:00,60.5,53.6,29.80,ESE,123,0.0,0.0,78,0.00,CLR,CLR,0.00,WeatherDisplay:10.37,2013-09-02 07:45:00,
2013-09-02 01:50:00,60.6,53.3,29.80,ESE,115,0.0,3.0,77,0.00,CLR,CLR,0.00,WeatherDisplay:10.37,2013-09-02 07:50:00,
2013-09-02 01:55:00,60.8,53.2,29.80,ESE,115,0.0,0.0,76,0.00,CLR,CLR,0.00,WeatherDisplay:10.37,2013-09-02 07:55:00,
2013-09-02 02:00:00,60.8,53.2,29.80,ESE,117,0.0,0.0,76,0.00,CLR,CLR,0.00,WeatherDisplay:10.37,2013-09-02 08:00:00,
2013-09-02 02:05:00,60.3,53.4,29.80,ESE,117,0.0,0.0,78,0.00,CLR,CLR,0.00,WeatherDisplay:10.37,2013-09-02 08:05:00,
2013-09-02 02:10:00,60.0,53.1,29.81,ESE,117,0.0,0.0,78,0.00,CLR,CLR,0.00,WeatherDisplay:10.37,2013-09-02 08:10:00,
2013-09-02 02:15:00,59.9,53.4,29.81,ESE,117,0.0,0.0,79,0.00,CLR,CLR,0.00,WeatherDisplay:10.37,2013-09-02 08:15:00,
2013-09-02 02:20:00,59.7,53.5,29.81,ESE,117,0.0,0.0,80,0.00,CLR,CLR,0.00,WeatherDisplay:10.37,2013-09-02 08:20:00,
2013-09-02 02:25:00,59.3,53.1,29.81,ESE,117,0.0,0.0,80,0.00,CLR,CLR,0.00,WeatherDisplay:10.37,2013-09-02 08:25:00,
2013-09-02 02:30:00,59.0,53.2,29.81,ESE,117,0.0,0.0,81,0.00,CLR,CLR,0.00,WeatherDisplay:10.37,2013-09-02 08:30:00,
2013-09-02 02:35:00,59.5,53.0,29.81,ESE,118,0.0,0.0,79,0.00,CLR,CLR,0.00,WeatherDisplay:10.37,2013-09-02 08:35:00,
2013-09-02 02:40:00,59.9,53.4,29.81,ESE,121,0.0,0.0,79,0.00,CLR,CLR,0.00,WeatherDisplay:10.37,2013-09-02 08:40:00,
2013-09-02 02:45:00,59.8,53.3,29.82,SE,126,0.0,0.0,79,0.00,CLR,CLR,0.00,WeatherDisplay:10.37,2013-09-02 08:45:00,
2013-09-02 02:50:00,59.9,53.0,29.81,SE,129,0.0,0.0,78,0.00,CLR,CLR,0.00,WeatherDisplay:10.37,2013-09-02 08:50:00,
2013-09-02 02:55:00,59.6,53.1,29.82,SE,129,0.0,0.0,79,0.00,CLR,CLR,0.00,WeatherDisplay:10.37,2013-09-02 08:55:00,
2013-09-02 03:00:00,59.6,52.7,29.81,SE,129,0.0,0.0,78,0.00,CLR,CLR,0.00,WeatherDisplay:10.37,2013-09-02 09:00:00,
2013-09-02 03:05:00,59.7,53.1,29.82,SE,136,0.0,0.0,79,0.00,CLR,CLR,0.00,WeatherDisplay:10.37,2013-09-02 09:05:00,
2013-09-02 03:10:00,59.6,52.7,29.82,SE,141,0.0,3.0,78,0.00,CLR,CLR,0.00,WeatherDisplay:10.37,2013-09-02 09:10:00,
2013-09-02 03:15:00,59.8,52.6,29.82,SE,125,0.0,3.0,77,0.00,CLR,CLR,0.00,WeatherDisplay:10.37,2013-09-02 09:15:00,
2013-09-02 03:20:00,59.9,52.3,29.82,ESE,103,1.0,6.0,76,0.00,CLR,CLR,0.00,WeatherDisplay:10.37,2013-09-02 09:20:00,
2013-09-02 03:25:00,59.9,52.3,29.82,ESE,114,3.0,8.0,76,0.00,CLR,CLR,0.00,WeatherDisplay:10.37,2013-09-02 09:25:00,
2013-09-02 03:30:00,60.0,52.1,29.82,ESE,122,0.0,5.0,75,0.00,CLR,CLR,0.00,WeatherDisplay:10.37,2013-09-02 09:30:00,
2013-09-02 03:35:00,59.6,52.1,29.82,SE,130,0.0,4.0,76,0.00,CLR,CLR,0.00,WeatherDisplay:10.37,2013-09-02 09:35:00,
2013-09-02 03:40:00,59.3,51.7,29.82,SE,145,0.0,1.0,76,0.00,CLR,CLR,0.00,WeatherDisplay:10.37,2013-09-02 09:40:00,
2013-09-02 03:45:00,59.8,51.9,29.82,SE,143,1.0,6.0,75,0.00,CLR,CLR,0.00,WeatherDisplay:10.37,2013-09-02 09:45:00,
2013-09-02 03:50:00,59.7,51.8,29.82,SE,134,0.0,3.0,75,0.00,CLR,CLR,0.00,WeatherDisplay:10.37,2013-09-02 09:50:00,
2013-09-02 03:55:00,59.9,51.6,29.82,SE,125,0.0,4.0,74,0.00,CLR,CLR,0.00,WeatherDisplay:10.37,2013-09-02 09:55:00,
2013-09-02 04:05:00,59.7,51.4,29.83,ESE,108,0.0,3.0,74,0.00,CLR,CLR,0.00,WeatherDisplay:10.37,2013-09-02 10:05:00,
2013-09-02 04:10:00,59.5,51.2,29.83,ESE,111,0.0,0.0,74,0.00,CLR,CLR,0.00,WeatherDisplay:10.37,2013-09-02 10:10:00,
2013-09-02 04:15:00,59.0,51.1,29.83,SE,125,2.0,5.0,75,0.00,CLR,CLR,0.00,WeatherDisplay:10.37,2013-09-02 10:15:00,
2013-09-02 04:25:00,58.9,51.0,29.83,SE,137,0.0,4.0,75,0.00,CLR,CLR,0.00,WeatherDisplay:10.37,2013-09-02 10:25:00,
2013-09-02 04:30:00,58.9,51.0,29.83,SE,125,0.0,0.0,75,0.00,CLR,CLR,0.00,WeatherDisplay:10.37,2013-09-02 10:30:00,
2013-09-02 04:40:00,59.0,50.8,29.83,SE,130,0.0,3.0,74,0.00,CLR,CLR,0.00,WeatherDisplay:10.37,2013-09-02 10:40:00,
2013-09-02 04:45:00,59.4,51.1,29.83,SE,128,1.0,7.0,74,0.00,CLR,CLR,0.00,WeatherDisplay:10.37,2013-09-02 10:45:00,
2013-09-02 04:50:00,59.1,50.8,29.83,ESE,120,1.0,7.0,74,0.00,CLR,CLR,0.00,WeatherDisplay:10.37,2013-09-02 10:50:00,
2013-09-02 04:55:00,58.8,50.9,29.83,ESE,114,1.0,5.0,75,0.00,CLR,CLR,0.00,WeatherDisplay:10.37,2013-09-02 10:55:00,
2013-09-02 05:00:00,58.5,50.9,29.83,ESE,120,2.0,5.0,76,0.00,CLR,CLR,0.00,WeatherDisplay:10.37,2013-09-02 11:00:00,
2013-09-02 05:05:00,58.1,50.6,29.83,SE,129,1.0,6.0,76,0.00,CLR,CLR,0.00,WeatherDisplay:10.37,2013-09-02 11:05:00,
2013-09-02 05:10:00,58.0,50.8,29.83,SE,144,0.0,0.0,77,0.00,CLR,CLR,0.00,WeatherDisplay:10.37,2013-09-02 11:10:00,
2013-09-02 05:15:00,57.9,50.4,29.83,SSE,148,1.0,5.0,76,0.00,CLR,CLR,0.00,WeatherDisplay:10.37,2013-09-02 11:15:00,
2013-09-02 05:20:00,57.8,50.3,29.83,SE,137,0.0,0.0,76,0.00,CLR,CLR,0.00,WeatherDisplay:10.37,2013-09-02 11:20:00,
2013-09-02 05:25:00,57.7,50.5,29.84,SE,145,0.0,0.0,77,0.00,CLR,CLR,0.00,WeatherDisplay:10.37,2013-09-02 11:25:00,
2013-09-02 05:35:00,57.5,50.4,29.84,SE,142,0.0,2.0,77,0.00,CLR,CLR,0.00,WeatherDisplay:10.37,2013-09-02 11:35:00,
2013-09-02 05:40:00,57.7,50.2,29.84,ESE,118,0.0,0.0,76,0.00,CLR,CLR,0.00,WeatherDisplay:10.37,2013-09-02 11:40:00,
2013-09-02 05:45:00,57.7,50.2,29.84,ESE,117,0.0,0.0,76,0.00,CLR,CLR,0.00,WeatherDisplay:10.37,2013-09-02 11:45:00,
2013-09-02 05:50:00,57.2,50.4,29.84,ESE,117,0.0,0.0,78,0.00,CLR,CLR,0.00,WeatherDisplay:10.37,2013-09-02 11:50:00,
2013-09-02 05:55:00,56.3,49.6,29.85,ESE,117,0.0,0.0,78,0.00,CLR,CLR,0.00,WeatherDisplay:10.37,2013-09-02 11:55:00,
2013-09-02 06:00:00,55.5,49.4,29.85,ESE,120,0.0,0.0,80,0.00,CLR,CLR,0.00,WeatherDisplay:10.37,2013-09-02 12:00:00,
2013-09-02 06:10:00,55.0,49.3,29.85,SE,129,0.0,4.0,81,0.00,CLR,CLR,0.00,WeatherDisplay:10.37,2013-09-02 12:10:00,
2013-09-02 06:15:00,55.4,49.7,29.85,SE,138,0.0,2.0,81,0.00,CLR,CLR,0.00,WeatherDisplay:10.37,2013-09-02 12:15:00,
2013-09-02 06:20:00,55.3,49.2,29.85,SE,142,0.0,0.0,80,0.00,CLR,CLR,0.00,WeatherDisplay:10.37,2013-09-02 12:20:00,
2013-09-02 06:25:00,55.3,49.6,29.85,SE,142,0.0,0.0,81,0.00,CLR,CLR,0.00,WeatherDisplay:10.37,2013-09-02 12:25:00,
2013-09-02 06:30:00,55.5,49.4,29.85,SE,142,0.0,0.0,80,0.00,CLR,CLR,0.00,WeatherDisplay:10.37,2013-09-02 12:30:00,
2013-09-02 06:35:00,54.8,49.1,29.86,SE,143,0.0,0.0,81,0.00,CLR,CLR,0.00,WeatherDisplay:10.37,2013-09-02 12:35:00,
2013-09-02 06:40:00,54.4,49.0,29.86,SE,136,0.0,0.0,82,0.00,CLR,CLR,0.00,WeatherDisplay:10.37,2013-09-02 12:40:00,
2013-09-02 06:45:00,54.2,48.8,29.86,SE,127,0.0,0.0,82,0.00,CLR,CLR,0.00,WeatherDisplay:10.37,2013-09-02 12:45:00,
2013-09-02 06:50:00,54.5,49.1,29.86,ESE,118,1.0,4.0,82,0.00,CLR,CLR,0.00,WeatherDisplay:10.37,2013-09-02 12:50:00,
2013-09-02 06:55:00,54.9,49.2,29.86,SE,125,0.0,4.0,81,0.00,CLR,CLR,0.00,WeatherDisplay:10.37,2013-09-02 12:55:00,
2013-09-02 07:00:00,54.4,49.1,29.86,SE,138,0.0,5.0,82,0.00,CLR,CLR,0.00,WeatherDisplay:10.37,2013-09-02 13:00:00,
2013-09-02 07:05:00,53.9,48.9,29.86,SE,141,0.0,0.0,83,0.00,CLR,CLR,0.00,WeatherDisplay:10.37,2013-09-02 13:05:00,
2013-09-02 07:10:00,53.4,48.7,29.86,SE,139,0.0,0.0,84,0.00,CLR,CLR,0.00,WeatherDisplay:10.37,2013-09-02 13:10:00,
2013-09-02 07:15:00,53.5,49.1,29.87,SE,132,0.0,0.0,85,0.00,CLR,CLR,0.00,WeatherDisplay:10.37,2013-09-02 13:15:00,
2013-09-02 07:20:00,54.0,50.2,29.86,SE,125,0.0,1.0,87,0.00,CLR,CLR,0.00,WeatherDisplay:10.37,2013-09-02 13:20:00,
2013-09-02 07:25:00,54.6,50.2,29.86,ESE,119,0.0,3.0,85,0.00,CLR,CLR,0.00,WeatherDisplay:10.37,2013-09-02 13:25:00,
2013-09-02 07:30:00,55.1,50.4,29.86,ESE,112,0.0,3.0,84,0.00,CLR,CLR,0.00,WeatherDisplay:10.37,2013-09-02 13:30:00,
2013-09-02 07:35:00,55.9,50.4,29.87,ESE,115,0.0,2.0,82,0.00,CLR,CLR,0.00,WeatherDisplay:10.37,2013-09-02 13:35:00,
2013-09-02 07:40:00,56.5,50.7,29.87,ESE,113,0.0,3.0,81,0.00,CLR,CLR,0.00,WeatherDisplay:10.37,2013-09-02 13:40:00,
2013-09-02 07:45:00,57.2,51.1,29.87,ESE,119,0.0,4.0,80,0.00,CLR,CLR,0.00,WeatherDisplay:10.37,2013-09-02 13:45:00,
2013-09-02 07:50:00,58.0,51.8,29.87,SE,132,0.0,4.0,80,0.00,CLR,CLR,0.00,WeatherDisplay:10.37,2013-09-02 13:50:00,
2013-09-02 07:55:00,59.1,51.9,29.87,SE,133,1.0,6.0,77,0.00,CLR,CLR,0.00,WeatherDisplay:10.37,2013-09-02 13:55:00,
2013-09-02 08:00:00,60.5,52.1,29.87,SE,133,1.0,3.0,74,0.00,CLR,CLR,0.00,WeatherDisplay:10.37,2013-09-02 14:00:00,
2013-09-02 08:05:00,61.6,52.8,29.87,SE,135,0.0,0.0,73,0.00,CLR,CLR,0.00,WeatherDisplay:10.37,2013-09-02 14:05:00,
2013-09-02 08:10:00,62.9,53.3,29.87,SE,135,0.0,0.0,71,0.00,CLR,CLR,0.00,WeatherDisplay:10.37,2013-09-02 14:10:00,
2013-09-02 08:15:00,63.4,53.8,29.87,SE,135,0.0,0.0,71,0.00,CLR,CLR,0.00,WeatherDisplay:10.37,2013-09-02 14:15:00,
2013-09-02 08:20:00,64.1,54.9,29.87,SE,135,0.0,0.0,72,0.00,CLR,CLR,0.00,WeatherDisplay:10.37,2013-09-02 14:20:00,
2013-09-02 08:25:00,65.0,55.7,29.87,SE,135,0.0,0.0,72,0.00,CLR,CLR,0.00,WeatherDisplay:10.37,2013-09-02 14:25:00,
2013-09-02 08:30:00,66.0,55.5,29.87,SE,135,0.0,0.0,69,0.00,CLR,CLR,0.00,WeatherDisplay:10.37,2013-09-02 14:30:00,
2013-09-02 08:35:00,66.9,55.6,29.87,SE,135,0.0,0.0,67,0.00,CLR,CLR,0.00,WeatherDisplay:10.37,2013-09-02 14:35:00,
2013-09-02 08:40:00,67.6,55.8,29.87,ESE,118,0.0,0.0,66,0.00,CLR,CLR,0.00,WeatherDisplay:10.37,2013-09-02 14:40:00,
2013-09-02 08:45:00,67.7,55.1,29.87,NE,35,0.0,0.0,64,0.00,CLR,CLR,0.00,WeatherDisplay:10.37,2013-09-02 14:45:00,
2013-09-02 08:50:00,67.4,54.8,29.87,North,360,0.0,0.0,64,0.00,CLR,CLR,0.00,WeatherDisplay:10.37,2013-09-02 14:50:00,
2013-09-02 08:55:00,67.5,54.0,29.87,North,360,0.0,0.0,62,0.00,CLR,CLR,0.00,WeatherDisplay:10.37,2013-09-02 14:55:00,
2013-09-02 09:00:00,67.9,53.5,29.86,North,360,0.0,0.0,60,0.00,CLR,CLR,0.00,WeatherDisplay:10.37,2013-09-02 15:00:00,
2013-09-02 09:05:00,68.6,53.7,29.86,North,360,0.0,0.0,59,0.00,CLR,CLR,0.00,WeatherDisplay:10.37,2013-09-02 15:05:00,
2013-09-02 09:10:00,69.4,54.5,29.86,North,360,0.0,0.0,59,0.00,CLR,CLR,0.00,WeatherDisplay:10.37,2013-09-02 15:10:00,
2013-09-02 09:15:00,70.1,54.6,29.86,North,360,0.0,0.0,58,0.00,CLR,CLR,0.00,WeatherDisplay:10.37,2013-09-02 15:15:00,
2013-09-02 09:20:00,70.6,55.1,29.86,North,360,0.0,0.0,58,0.00,CLR,CLR,0.00,WeatherDisplay:10.37,2013-09-02 15:20:00,
2013-09-02 09:25:00,71.1,56.0,29.86,North,360,0.0,0.0,59,0.00,CLR,CLR,0.00,WeatherDisplay:10.37,2013-09-02 15:25:00,
2013-09-02 09:35:00,71.7,55.2,29.86,North,360,0.0,0.0,56,0.00,CLR,CLR,0.00,WeatherDisplay:10.37,2013-09-02 15:35:00,
2013-09-02 09:40:00,72.5,55.9,29.86,North,360,0.0,0.0,56,0.00,CLR,CLR,0.00,WeatherDisplay:10.37,2013-09-02 15:40:00,
2013-09-02 09:45:00,73.9,56.2,29.86,North,360,0.0,0.0,54,0.00,CLR,CLR,0.00,WeatherDisplay:10.37,2013-09-02 15:45:00,
2013-09-02 09:50:00,74.4,55.6,29.86,North,358,0.0,0.0,52,0.00,CLR,CLR,0.00,WeatherDisplay:10.37,2013-09-02 15:50:00,
2013-09-02 10:00:00,75.5,55.6,29.85,North,355,0.0,0.0,50,0.00,CLR,CLR,0.00,WeatherDisplay:10.37,2013-09-02 16:00:00,
2013-09-02 10:05:00,75.9,56.5,29.85,North,355,0.0,0.0,51,0.00,CLR,CLR,0.00,WeatherDisplay:10.37,2013-09-02 16:05:00,
2013-09-02 10:10:00,76.2,57.3,29.85,North,355,0.0,0.0,52,0.00,CLR,CLR,0.00,WeatherDisplay:10.37,2013-09-02 16:10:00,
2013-09-02 10:15:00,76.8,57.3,29.85,North,355,0.0,0.0,51,0.00,CLR,CLR,0.00,WeatherDisplay:10.37,2013-09-02 16:15:00,
2013-09-02 10:20:00,76.7,56.1,29.85,NNW,340,0.0,1.0,49,0.00,CLR,CLR,0.00,WeatherDisplay:10.37,2013-09-02 16:20:00,
2013-09-02 10:25:00,76.3,56.8,29.86,NW,310,0.0,4.0,51,0.00,CLR,CLR,0.00,WeatherDisplay:10.37,2013-09-02 16:25:00,
2013-09-02 10:30:00,76.1,56.1,29.85,WNW,295,0.0,0.0,50,0.00,CLR,CLR,0.00,WeatherDisplay:10.37,2013-09-02 16:30:00,
2013-09-02 10:35:00,76.5,57.0,29.85,WNW,292,0.0,0.0,51,0.00,CLR,CLR,0.00,WeatherDisplay:10.37,2013-09-02 16:35:00,
2013-09-02 10:40:00,77.0,56.4,29.85,WNW,286,0.0,2.0,49,0.00,CLR,CLR,0.00,WeatherDisplay:10.37,2013-09-02 16:40:00,
2013-09-02 10:45:00,77.5,58.5,29.85,WNW,294,0.0,2.0,52,0.00,CLR,CLR,0.00,WeatherDisplay:10.37,2013-09-02 16:45:00,
2013-09-02 10:50:00,77.9,58.3,29.85,NW,309,0.0,3.0,51,0.00,CLR,CLR,0.00,WeatherDisplay:10.37,2013-09-02 16:50:00,
2013-09-02 10:55:00,78.3,58.7,29.85,WNW,282,0.0,3.0,51,0.00,CLR,CLR,0.00,WeatherDisplay:10.37,2013-09-02 16:55:00,
2013-09-02 11:00:00,78.5,57.8,29.85,West,267,0.0,6.0,49,0.00,CLR,CLR,0.00,WeatherDisplay:10.37,2013-09-02 17:00:00,
2013-09-02 11:05:00,78.7,59.0,29.84,WSW,253,0.0,5.0,51,0.00,CLR,CLR,0.00,WeatherDisplay:10.37,2013-09-02 17:05:00,
2013-09-02 11:10:00,78.7,57.9,29.84,WSW,248,1.0,6.0,49,0.00,CLR,CLR,0.00,WeatherDisplay:10.37,2013-09-02 17:10:00,
2013-09-02 11:15:00,79.0,57.1,29.84,WSW,250,0.0,3.0,47,0.00,CLR,CLR,0.00,WeatherDisplay:10.37,2013-09-02 17:15:00,
2013-09-02 11:20:00,79.6,58.2,29.84,WSW,244,1.0,5.0,48,0.00,CLR,CLR,0.00,WeatherDisplay:10.37,2013-09-02 17:20:00,
2013-09-02 11:25:00,79.7,58.3,29.83,WSW,247,5.0,9.0,48,0.00,CLR,CLR,0.00,WeatherDisplay:10.37,2013-09-02 17:25:00,
2013-09-02 11:30:00,79.5,58.7,29.83,WSW,245,0.0,7.0,49,0.00,CLR,CLR,0.00,WeatherDisplay:10.37,2013-09-02 17:30:00,
2013-09-02 11:35:00,79.5,57.5,29.83,WSW,237,0.0,5.0,47,0.00,CLR,CLR,0.00,WeatherDisplay:10.37,2013-09-02 17:35:00,
2013-09-02 11:40:00,80.0,58.5,29.83,West,260,0.0,7.0,48,0.00,CLR,CLR,0.00,WeatherDisplay:10.37,2013-09-02 17:40:00,
2013-09-02 11:45:00,80.3,57.6,29.83,WNW,282,0.0,3.0,46,0.00,CLR,CLR,0.00,WeatherDisplay:10.37,2013-09-02 17:45:00,
2013-09-02 11:50:00,80.5,58.4,29.82,WSW,252,0.0,4.0,47,0.00,CLR,CLR,0.00,WeatherDisplay:10.37,2013-09-02 17:50:00,
2013-09-02 11:55:00,80.8,59.9,29.82,WSW,249,1.0,7.0,49,0.00,CLR,CLR,0.00,WeatherDisplay:10.37,2013-09-02 17:55:00,
2013-09-02 12:00:00,81.1,58.4,29.82,WSW,247,1.0,4.0,46,0.00,CLR,CLR,0.00,WeatherDisplay:10.37,2013-09-02 18:00:00,
2013-09-02 12:05:00,81.4,58.6,29.82,West,264,2.0,8.0,46,0.00,CLR,CLR,0.00,WeatherDisplay:10.37,2013-09-02 18:05:00,
2013-09-02 12:10:00,81.6,59.4,29.81,West,265,0.0,5.0,47,0.00,CLR,CLR,0.00,WeatherDisplay:10.37,2013-09-02 18:10:00,
2013-09-02 12:15:00,81.8,59.6,29.81,West,265,0.0,7.0,47,0.00,CLR,CLR,0.00,WeatherDisplay:10.37,2013-09-02 18:15:00,
2013-09-02 12:20:00,81.9,58.5,29.81,West,263,0.0,7.0,45,0.00,CLR,CLR,0.00,WeatherDisplay:10.37,2013-09-02 18:20:00,
2013-09-02 12:30:00,82.3,58.2,29.80,West,281,3.0,10.0,44,0.00,CLR,CLR,0.00,WeatherDisplay:10.37,2013-09-02 18:30:00,
2013-09-02 12:35:00,82.2,58.1,29.80,WNW,285,1.0,12.0,44,0.00,CLR,CLR,0.00,WeatherDisplay:10.37,2013-09-02 18:35:00,
2013-09-02 12:45:00,82.3,58.8,29.79,WSW,254,0.0,7.0,45,0.00,CLR,CLR,0.00,WeatherDisplay:10.37,2013-09-02 18:45:00,
2013-09-02 12:50:00,82.7,58.6,29.79,WSW,247,1.0,5.0,44,0.00,CLR,CLR,0.00,WeatherDisplay:10.37,2013-09-02 18:50:00,
2013-09-02 13:00:00,83.4,58.6,29.79,West,271,2.0,10.0,43,0.00,CLR,CLR,0.00,WeatherDisplay:10.37,2013-09-02 19:00:00,
2013-09-02 13:10:00,84.1,59.8,29.79,WNW,284,0.0,12.0,44,0.00,CLR,CLR,0.00,WeatherDisplay:10.37,2013-09-02 19:10:00,
2013-09-02 13:15:00,84.8,60.5,29.78,NW,312,2.0,13.0,44,0.00,CLR,CLR,0.00,WeatherDisplay:10.37,2013-09-02 19:15:00,
2013-09-02 13:25:00,84.6,58.3,29.78,WNW,299,0.0,9.0,41,0.00,CLR,CLR,0.00,WeatherDisplay:10.37,2013-09-02 19:25:00,
2013-09-02 13:30:00,84.1,58.5,29.78,NW,311,0.0,0.0,42,0.00,CLR,CLR,0.00,WeatherDisplay:10.37,2013-09-02 19:30:00,
2013-09-02 13:35:00,83.0,56.9,29.78,West,273,0.0,0.0,41,0.00,CLR,CLR,0.00,WeatherDisplay:10.37,2013-09-02 19:35:00,
2013-09-02 13:40:00,82.4,56.3,29.78,WSW,241,0.0,0.0,41,0.00,CLR,CLR,0.00,WeatherDisplay:10.37,2013-09-02 19:40:00,
2013-09-02 13:50:00,81.5,56.2,29.78,SW,221,0.0,0.0,42,0.00,CLR,CLR,0.00,WeatherDisplay:10.37,2013-09-02 19:50:00,
2013-09-02 13:55:00,81.1,57.1,29.78,SSW,205,0.0,1.0,44,0.00,CLR,CLR,0.00,WeatherDisplay:10.37,2013-09-02 19:55:00,
2013-09-02 14:00:00,82.0,58.5,29.77,SSW,205,0.0,0.0,45,0.00,CLR,CLR,0.00,WeatherDisplay:10.37,2013-09-02 20:00:00,
2013-09-02 14:05:00,82.7,57.3,29.77,SSW,204,0.0,1.0,42,0.00,CLR,CLR,0.00,WeatherDisplay:10.37,2013-09-02 20:05:00,
2013-09-02 14:10:00,82.7,57.9,29.77,SSW,196,0.0,2.0,43,0.00,CLR,CLR,0.00,WeatherDisplay:10.37,2013-09-02 20:10:00,
2013-09-02 14:20:00,82.8,57.4,29.76,South,184,1.0,5.0,42,0.00,CLR,CLR,0.00,WeatherDisplay:10.37,2013-09-02 20:20:00,
2013-09-02 14:30:00,81.5,56.2,29.76,SSE,152,1.0,7.0,42,0.00,CLR,CLR,0.00,WeatherDisplay:10.37,2013-09-02 20:30:00,
2013-09-02 14:35:00,81.8,58.3,29.75,SE,146,0.0,1.0,45,0.00,CLR,CLR,0.00,WeatherDisplay:10.37,2013-09-02 20:35:00,
2013-09-02 14:40:00,81.8,59.0,29.75,SE,140,0.0,2.0,46,0.00,CLR,CLR,0.00,WeatherDisplay:10.37,2013-09-02 20:40:00,
2013-09-02 14:45:00,81.6,58.2,29.75,SE,141,0.0,0.0,45,0.00,CLR,CLR,0.00,WeatherDisplay:10.37,2013-09-02 20:45:00,
2013-09-02 14:50:00,82.2,59.4,29.74,SE,141,0.0,2.0,46,0.00,CLR,CLR,0.00,WeatherDisplay:10.37,2013-09-02 20:50:00,
2013-09-02 14:55:00,83.8,56.2,29.74,SSE,150,1.0,7.0,39,0.00,CLR,CLR,0.00,WeatherDisplay:10.37,2013-09-02 20:55:00,
2013-09-02 15:00:00,83.7,53.9,29.74,South,189,2.0,10.0,36,0.00,CLR,CLR,0.00,WeatherDisplay:10.37,2013-09-02 21:00:00,
2013-09-02 15:05:00,83.5,55.2,29.74,SSW,202,0.0,3.0,38,0.00,CLR,CLR,0.00,WeatherDisplay:10.37,2013-09-02 21:05:00,
2013-09-02 15:10:00,84.1,56.5,29.73,SW,232,0.0,5.0,39,0.00,CLR,CLR,0.00,WeatherDisplay:10.37,2013-09-02 21:10:00,
2013-09-02 15:15:00,85.7,54.9,29.73,WNW,282,0.0,6.0,35,0.00,CLR,CLR,0.00,WeatherDisplay:10.37,2013-09-02 21:15:00,
2013-09-02 15:20:00,86.8,55.9,29.73,WNW,284,1.0,6.0,35,0.00,CLR,CLR,0.00,WeatherDisplay:10.37,2013-09-02 21:20:00,
2013-09-02 15:30:00,87.3,56.3,29.73,WNW,283,2.0,14.0,35,0.00,CLR,CLR,0.00,WeatherDisplay:10.37,2013-09-02 21:30:00,
2013-09-02 15:35:00,87.3,54.6,29.72,WSW,240,5.0,12.0,33,0.00,CLR,CLR,0.00,WeatherDisplay:10.37,2013-09-02 21:35:00,
2013-09-02 15:40:00,87.4,55.6,29.72,WSW,248,7.0,14.0,34,0.00,CLR,CLR,0.00,WeatherDisplay:10.37,2013-09-02 21:40:00,
2013-09-02 15:45:00,87.3,54.7,29.72,WSW,258,3.0,15.0,33,0.00,CLR,CLR,0.00,WeatherDisplay:10.37,2013-09-02 21:45:00,
2013-09-02 15:50:00,87.4,55.5,29.72,West,268,2.0,7.0,34,0.00,CLR,CLR,0.00,WeatherDisplay:10.37,2013-09-02 21:50:00,
2013-09-02 15:55:00,87.3,55.5,29.72,West,268,2.0,12.0,34,0.00,CLR,CLR,0.00,WeatherDisplay:10.37,2013-09-02 21:55:00,
2013-09-02 16:00:00,87.4,55.6,29.72,West,271,0.0,2.0,34,0.00,CLR,CLR,0.00,WeatherDisplay:10.37,2013-09-02 22:00:00,
2013-09-02 16:05:00,87.8,55.9,29.71,West,261,6.0,13.0,34,0.00,CLR,CLR,0.00,WeatherDisplay:10.37,2013-09-02 22:05:00,
2013-09-02 16:10:00,87.7,55.8,29.72,WNW,290,5.0,13.0,34,0.00,CLR,CLR,0.00,WeatherDisplay:10.37,2013-09-02 22:10:00,
2013-09-02 16:15:00,87.4,55.6,29.71,WNW,293,7.0,12.0,34,0.00,CLR,CLR,0.00,WeatherDisplay:10.37,2013-09-02 22:15:00,
2013-09-02 16:20:00,87.4,56.4,29.71,WNW,297,2.0,12.0,35,0.00,CLR,CLR,0.00,WeatherDisplay:10.37,2013-09-02 22:20:00,
2013-09-02 16:25:00,87.5,56.5,29.71,WNW,292,2.0,6.0,35,0.00,CLR,CLR,0.00,WeatherDisplay:10.37,2013-09-02 22:25:00,
2013-09-02 16:30:00,87.5,57.3,29.71,West,267,2.0,12.0,36,0.00,CLR,CLR,0.00,WeatherDisplay:10.37,2013-09-02 22:30:00,
2013-09-02 16:35:00,87.2,58.5,29.71,West,267,2.0,12.0,38,0.00,CLR,CLR,0.00,WeatherDisplay:10.37,2013-09-02 22:35:00,
2013-09-02 16:40:00,87.0,57.6,29.71,West,274,3.0,12.0,37,0.00,CLR,CLR,0.00,WeatherDisplay:10.37,2013-09-02 22:40:00,
2013-09-02 16:45:00,86.7,58.1,29.71,WNW,294,3.0,12.0,38,0.00,CLR,CLR,0.00,WeatherDisplay:10.37,2013-09-02 22:45:00,
2013-09-02 16:50:00,86.9,58.3,29.71,WNW,300,2.0,7.0,38,0.00,CLR,CLR,0.00,WeatherDisplay:10.37,2013-09-02 22:50:00,
2013-09-02 16:55:00,86.9,57.5,29.71,WNW,293,0.0,12.0,37,0.00,CLR,CLR,0.00,WeatherDisplay:10.37,2013-09-02 22:55:00,
2013-09-02 17:00:00,86.8,58.1,29.71,WNW,292,1.0,12.0,38,0.00,CLR,CLR,0.00,WeatherDisplay:10.37,2013-09-02 23:00:00,
2013-09-02 17:05:00,86.5,57.9,29.70,WNW,293,1.0,10.0,38,0.00,CLR,CLR,0.00,WeatherDisplay:10.37,2013-09-02 23:05:00,
2013-09-02 17:10:00,86.5,57.9,29.70,WNW,292,1.0,12.0,38,0.00,CLR,CLR,0.00,WeatherDisplay:10.37,2013-09-02 23:10:00,
2013-09-02 17:20:00,86.4,58.5,29.70,NW,311,2.0,12.0,39,0.00,CLR,CLR,0.00,WeatherDisplay:10.37,2013-09-02 23:20:00,
2013-09-02 17:25:00,86.4,58.5,29.70,NW,310,0.0,9.0,39,0.00,CLR,CLR,0.00,WeatherDisplay:10.37,2013-09-02 23:25:00,
2013-09-02 17:30:00,86.5,57.9,29.70,NW,322,1.0,7.0,38,0.00,CLR,CLR,0.00,WeatherDisplay:10.37,2013-09-02 23:30:00,
2013-09-02 17:35:00,86.4,57.8,29.70,WNW,286,0.0,13.0,38,0.00,CLR,CLR,0.00,WeatherDisplay:10.37,2013-09-02 23:35:00,
2013-09-02 17:40:00,86.2,58.3,29.70,West,273,2.0,12.0,39,0.00,CLR,CLR,0.00,WeatherDisplay:10.37,2013-09-02 23:40:00,
2013-09-02 17:45:00,85.7,58.6,29.70,West,264,2.0,9.0,40,0.00,CLR,CLR,0.00,WeatherDisplay:10.37,2013-09-02 23:45:00,
2013-09-02 17:50:00,85.3,56.8,29.70,West,268,2.0,10.0,38,0.00,CLR,CLR,0.00,WeatherDisplay:10.37,2013-09-02 23:50:00,
2013-09-02 17:55:00,85.2,56.7,29.70,West,270,5.0,10.0,38,0.00,CLR,CLR,0.00,WeatherDisplay:10.37,2013-09-02 23:55:00,
2013-09-02 18:00:00,85.1,57.4,29.70,West,267,0.0,5.0,39,0.00,CLR,CLR,0.00,WeatherDisplay:10.37,2013-09-03 00:00:00,
2013-09-02 18:05:00,85.3,57.5,29.70,WNW,286,0.0,5.0,39,0.00,CLR,CLR,0.00,WeatherDisplay:10.37,2013-09-03 00:05:00,
2013-09-02 18:10:00,85.1,58.1,29.70,West,274,1.0,7.0,40,0.00,CLR,CLR,0.00,WeatherDisplay:10.37,2013-09-03 00:10:00,
2013-09-02 18:15:00,84.9,57.9,29.70,West,271,1.0,6.0,40,0.00,CLR,CLR,0.00,WeatherDisplay:10.37,2013-09-03 00:15:00,
2013-09-02 18:20:00,84.7,57.0,29.70,West,266,0.0,6.0,39,0.00,CLR,CLR,0.00,WeatherDisplay:10.37,2013-09-03 00:20:00,
2013-09-02 18:25:00,84.9,57.9,29.70,West,273,0.0,0.0,40,0.00,CLR,CLR,0.00,WeatherDisplay:10.37,2013-09-03 00:25:00,
2013-09-02 18:30:00,85.1,57.4,29.70,West,279,0.0,6.0,39,0.00,CLR,CLR,0.00,WeatherDisplay:10.37,2013-09-03 00:30:00,
2013-09-02 18:40:00,84.4,56.0,29.70,WNW,299,0.0,5.0,38,0.00,CLR,CLR,0.00,WeatherDisplay:10.37,2013-09-03 00:40:00,
2013-09-02 18:50:00,84.1,55.8,29.71,West,279,0.0,9.0,38,0.00,CLR,CLR,0.00,WeatherDisplay:10.37,2013-09-03 00:50:00,
2013-09-02 18:55:00,83.4,55.8,29.71,West,269,0.0,1.0,39,0.00,CLR,CLR,0.00,WeatherDisplay:10.37,2013-09-03 00:55:00,
2013-09-02 19:00:00,82.8,54.6,29.71,West,273,0.0,0.0,38,0.00,CLR,CLR,0.00,WeatherDisplay:10.37,2013-09-03 01:00:00,
2013-09-02 19:05:00,82.7,55.2,29.71,West,267,0.0,0.0,39,0.00,CLR,CLR,0.00,WeatherDisplay:10.37,2013-09-03 01:05:00,
2013-09-02 19:10:00,82.9,56.1,29.71,West,262,0.0,0.0,40,0.00,CLR,CLR,0.00,WeatherDisplay:10.37,2013-09-03 01:10:00,
2013-09-02 19:15:00,82.9,56.8,29.71,West,262,0.0,2.0,41,0.00,CLR,CLR,0.00,WeatherDisplay:10.37,2013-09-03 01:15:00,
2013-09-02 19:20:00,82.4,56.4,29.71,West,261,0.0,0.0,41,0.00,CLR,CLR,0.00,WeatherDisplay:10.37,2013-09-03 01:20:00,
2013-09-02 19:30:00,81.2,55.2,29.71,West,261,0.0,0.0,41,0.00,CLR,CLR,0.00,WeatherDisplay:10.37,2013-09-03 01:30:00,
2013-09-02 19:35:00,80.2,55.0,29.71,West,261,0.0,0.0,42,0.00,CLR,CLR,0.00,WeatherDisplay:10.37,2013-09-03 01:35:00,
2013-09-02 19:40:00,79.4,55.0,29.71,West,260,0.0,0.0,43,0.00,CLR,CLR,0.00,WeatherDisplay:10.37,2013-09-03 01:40:00,
2013-09-02 19:45:00,78.3,55.8,29.72,WSW,258,0.0,0.0,46,0.00,CLR,CLR,0.00,WeatherDisplay:10.37,2013-09-03 01:45:00,
2013-09-02 19:55:00,73.9,55.1,29.72,SW,234,0.0,0.0,52,0.00,CLR,CLR,0.00,WeatherDisplay:10.37,2013-09-03 01:55:00,
2013-09-02 20:00:00,72.5,54.4,29.72,South,187,0.0,0.0,53,0.00,CLR,CLR,0.00,WeatherDisplay:10.37,2013-09-03 02:00:00,
2013-09-02 20:10:00,69.8,54.4,29.72,South,171,0.0,1.0,58,0.00,CLR,CLR,0.00,WeatherDisplay:10.37,2013-09-03 02:10:00,
2013-09-02 20:20:00,69.0,53.6,29.73,SSE,157,0.0,0.0,58,0.00,CLR,CLR,0.00,WeatherDisplay:10.37,2013-09-03 02:20:00,
2013-09-02 20:25:00,69.9,53.5,29.73,SSE,157,0.0,0.0,56,0.00,CLR,CLR,0.00,WeatherDisplay:10.37,2013-09-03 02:25:00,
2013-09-02 20:30:00,70.3,54.8,29.73,SE,144,0.0,0.0,58,0.00,CLR,CLR,0.00,WeatherDisplay:10.37,2013-09-03 02:30:00,
2013-09-02 20:35:00,69.4,54.4,29.74,ENE,76,0.0,0.0,59,0.00,CLR,CLR,0.00,WeatherDisplay:10.37,2013-09-03 02:35:00,
2013-09-02 20:45:00,68.6,54.1,29.74,NE,56,0.0,0.0,60,0.00,CLR,CLR,0.00,WeatherDisplay:10.37,2013-09-03 02:45:00,
2013-09-02 20:50:00,68.8,53.9,29.74,ENE,57,0.0,0.0,59,0.00,CLR,CLR,0.00,WeatherDisplay:10.37,2013-09-03 02:50:00,
2013-09-02 20:55:00,68.6,54.2,29.75,ENE,65,1.0,4.0,60,0.00,CLR,CLR,0.00,WeatherDisplay:10.37,2013-09-03 02:55:00,
2013-09-02 21:00:00,68.3,54.3,29.75,East,80,0.0,0.0,61,0.00,CLR,CLR,0.00,WeatherDisplay:10.37,2013-09-03 03:00:00,
2013-09-02 21:10:00,67.3,53.8,29.75,East,96,0.0,1.0,62,0.00,CLR,CLR,0.00,WeatherDisplay:10.37,2013-09-03 03:10:00,
2013-09-02 21:15:00,66.6,53.6,29.75,ESE,117,0.0,1.0,63,0.00,CLR,CLR,0.00,WeatherDisplay:10.37,2013-09-03 03:15:00,
2013-09-02 21:20:00,66.6,53.6,29.76,ESE,116,0.0,4.0,63,0.00,CLR,CLR,0.00,WeatherDisplay:10.37,2013-09-03 03:20:00,
2013-09-02 21:25:00,66.5,53.5,29.75,ESE,109,0.0,0.0,63,0.00,CLR,CLR,0.00,WeatherDisplay:10.37,2013-09-03 03:25:00,
2013-09-02 21:35:00,66.5,53.5,29.76,ESE,122,1.0,5.0,63,0.00,CLR,CLR,0.00,WeatherDisplay:10.37,2013-09-03 03:35:00,
2013-09-02 21:45:00,65.7,53.2,29.76,SE,127,0.0,6.0,64,0.00,CLR,CLR,0.00,WeatherDisplay:10.37,2013-09-03 03:45:00,
2013-09-02 21:55:00,65.3,53.2,29.76,SE,129,0.0,6.0,65,0.00,CLR,CLR,0.00,WeatherDisplay:10.37,2013-09-03 03:55:00,
2013-09-02 22:00:00,65.4,53.3,29.76,SE,126,0.0,4.0,65,0.00,CLR,CLR,0.00,WeatherDisplay:10.37,2013-09-03 04:00:00,
2013-09-02 22:05:00,65.3,53.6,29.76,ESE,119,0.0,2.0,66,0.00,CLR,CLR,0.00,WeatherDisplay:10.37,2013-09-03 04:05:00,
2013-09-02 22:10:00,65.0,53.4,29.76,ESE,119,0.0,3.0,66,0.00,CLR,CLR,0.00,WeatherDisplay:10.37,2013-09-03 04:10:00,
2013-09-02 22:15:00,64.7,53.1,29.76,ESE,108,1.0,5.0,66,0.00,CLR,CLR,0.00,WeatherDisplay:10.37,2013-09-03 04:15:00,
2013-09-02 22:20:00,64.5,52.9,29.76,ESE,103,0.0,3.0,66,0.00,CLR,CLR,0.00,WeatherDisplay:10.37,2013-09-03 04:20:00,
2013-09-02 22:30:00,63.9,52.7,29.77,ESE,123,0.0,1.0,67,0.00,CLR,CLR,0.00,WeatherDisplay:10.37,2013-09-03 04:30:00,
2013-09-02 22:35:00,63.6,52.9,29.77,ESE,120,0.0,3.0,68,0.00,CLR,CLR,0.00,WeatherDisplay:10.37,2013-09-03 04:35:00,
2013-09-02 22:40:00,63.5,52.7,29.77,ESE,118,0.0,5.0,68,0.00,CLR,CLR,0.00,WeatherDisplay:10.37,2013-09-03 04:40:00,
2013-09-02 22:45:00,63.2,52.9,29.77,ESE,119,0.0,0.0,69,0.00,CLR,CLR,0.00,WeatherDisplay:10.37,2013-09-03 04:45:00,
2013-09-02 22:50:00,62.9,52.6,29.77,ESE,118,0.0,3.0,69,0.00,CLR,CLR,0.00,WeatherDisplay:10.37,2013-09-03 04:50:00,
2013-09-02 23:00:00,61.3,52.5,29.78,SE,142,0.0,0.0,73,0.00,CLR,CLR,0.00,WeatherDisplay:10.37,2013-09-03 05:00:00,
2013-09-02 23:05:00,60.9,52.6,29.78,SE,142,0.0,0.0,74,0.00,CLR,CLR,0.00,WeatherDisplay:10.37,2013-09-03 05:05:00,
2013-09-02 23:15:00,61.1,52.7,29.78,SE,132,0.0,0.0,74,0.00,CLR,CLR,0.00,WeatherDisplay:10.37,2013-09-03 05:15:00,
2013-09-02 23:20:00,60.9,52.6,29.78,SE,133,0.0,2.0,74,0.00,CLR,CLR,0.00,WeatherDisplay:10.37,2013-09-03 05:20:00,
2013-09-02 23:25:00,61.2,52.5,29.78,SE,133,0.0,0.0,73,0.00,CLR,CLR,0.00,WeatherDisplay:10.37,2013-09-03 05:25:00,
2013-09-02 23:30:00,61.4,52.3,29.79,SE,133,0.0,0.0,72,0.00,CLR,CLR,0.00,WeatherDisplay:10.37,2013-09-03 05:30:00,
2013-09-02 23:35:00,61.6,52.5,29.79,SE,131,0.0,3.0,72,0.00,CLR,CLR,0.00,WeatherDisplay:10.37,2013-09-03 05:35:00,
2013-09-02 23:45:00,61.9,52.4,29.79,SE,130,0.0,4.0,71,0.00,CLR,CLR,0.00,WeatherDisplay:10.37,2013-09-03 05:45:00,
2013-09-02 23:50:00,61.9,52.4,29.79,ESE,120,0.0,0.0,71,0.00,CLR,CLR,0.00,WeatherDisplay:10.37,2013-09-03 05:50:00,